Location: Newark
(42.8481°N, 0.4872°E)
Time: 18:18:50
(UTC+00:00)

Vanguard 3 - Pass Details

Date: 31 October 2020
Orbit: 508 x 3262 km, 33.3° (Epoch: 24 November)

Event Time Altitude Azimuth Distance (km) Brightness Sun altitude
Rises 12:08:47 0° 279° (W) 7,160 12.0 32.5°
Reaches altitude 10° 12:16:25 10° 263° (W) 5,862 11.8 32.2°
Maximum altitude 12:25:33 17° 232° (SW) 4,725 12.0 31.9°
Drops below altitude 10° 12:33:02 10° 198° (SSW) 4,623 12.6 31.6°
Sets 12:37:56 0° 179° (S) 5,100 12.2 31.4°
